TimeMDT,TemperatureF,Dew PointF,Humidity,Sea Level PressureIn,VisibilityMPH,Wind Direction,Wind SpeedMPH,Gust SpeedMPH,PrecipitationIn,Events,Conditions,WindDirDegrees,DateUTC
12:53 AM,57.9,28.9,33,29.93,10.0,East,21.9,27.6,N/A,,Clear,90,2013-05-23 06:53:00
1:53 AM,55.9,30.0,37,29.91,10.0,East,20.7,31.1,N/A,,Clear,90,2013-05-23 07:53:00
2:53 AM,55.0,30.0,38,29.90,10.0,East,23.0,28.8,N/A,,Clear,80,2013-05-23 08:53:00
3:53 AM,55.0,30.0,38,29.91,10.0,East,21.9,28.8,N/A,,Mostly Cloudy,80,2013-05-23 09:53:00
4:53 AM,53.1,32.0,45,29.91,10.0,East,17.3,24.2,N/A,,Mostly Cloudy,80,2013-05-23 10:53:00
5:53 AM,54.0,34.0,47,29.87,10.0,East,24.2,33.4,N/A,,Mostly Cloudy,90,2013-05-23 11:53:00
6:53 AM,54.0,36.0,51,29.88,10.0,East,24.2,34.5,N/A,,Overcast,80,2013-05-23 12:53:00
7:53 AM,51.1,45.0,80,29.89,10.0,East,23.0,34.5,0.01,,Overcast,80,2013-05-23 13:53:00
8:53 AM,50.0,42.1,74,29.87,10.0,ENE,25.3,38.0,N/A,,Overcast,70,2013-05-23 14:53:00
9:53 AM,52.0,45.0,77,29.91,10.0,ESE,23.0,28.8,0.01,Rain,Light Rain,110,2013-05-23 15:53:00
10:53 AM,53.1,44.1,71,29.92,10.0,East,17.3,23.0,0.00,,Overcast,90,2013-05-23 16:53:00
11:53 AM,57.0,45.0,64,29.91,10.0,ESE,17.3,28.8,N/A,,Overcast,110,2013-05-23 17:53:00
12:53 PM,57.9,45.0,62,29.91,10.0,ESE,17.3,-,N/A,,Overcast,110,2013-05-23 18:53:00
1:53 PM,60.1,44.1,55,29.89,10.0,SE,24.2,31.1,N/A,,Overcast,130,2013-05-23 19:53:00
2:53 PM,62.1,44.1,52,29.88,10.0,SE,17.3,25.3,N/A,,Overcast,130,2013-05-23 20:53:00
3:53 PM,62.1,44.1,52,29.88,10.0,ESE,17.3,-,N/A,,Overcast,120,2013-05-23 21:53:00
4:53 PM,61.0,45.0,56,29.88,10.0,SE,9.2,-,N/A,,Overcast,140,2013-05-23 22:53:00
5:53 PM,61.0,45.0,56,29.88,10.0,SE,6.9,-,N/A,,Overcast,130,2013-05-23 23:53:00
6:53 PM,57.0,46.9,69,29.88,10.0,West,4.6,-,N/A,,Overcast,270,2013-05-24 00:53:00
7:53 PM,57.0,48.0,72,29.87,10.0,WSW,5.8,-,N/A,,Overcast,240,2013-05-24 01:53:00
8:53 PM,55.9,48.0,75,29.85,10.0,Calm,Calm,-,N/A,,Overcast,0,2013-05-24 02:53:00
9:53 PM,54.0,46.9,77,29.86,10.0,South,4.6,-,N/A,,Overcast,190,2013-05-24 03:53:00
10:53 PM,53.1,46.9,80,29.85,10.0,SW,8.1,-,N/A,,Overcast,230,2013-05-24 04:53:00
11:53 PM,52.0,50.0,93,29.86,6.0,WSW,8.1,-,0.05,Rain,Rain,250,2013-05-24 05:53:00